Dewpoint
-3 1 2 -0 -2 -2 -1 -0 -0 -4 -7 -7 -6 -6 -6 -6 -4 -1 -0 -2 -4 -4 -5 -2 3 4 3 2 2 3 9 12 11 10 10 10 10 10 10 10 11 10 12 12
1 2 -2 -4 -4 -4 -4 -3 -2 -5 -6 -4 -2 1 -3 -4 -3 -0 -0 -1 -2 -5 -3 1 3 3 3 2 2 5 8 12 11 11 10 9 9 10 10 10 11 12 12 11
0 -2 -5 -5 -3 -2 -3 -2 -2 -2 -4 -2 -0 1 0 -1 -2 -1 1 1 2 2 3 3 3 4 4 1 1 6 8 12 13 11 10 9 9 10 10 11 10 11 11 9
-2 -4 -5 -4 -2 -3 1 -2 -1 2 3 3 -0 4 2 0 -2 -0 1 2 2 3 3 3 3 4 4 3 4 8 10 10 13 12 11 9 9 10 9 9 9 10 9 9
-0 -1 -1 0 -0 0 3 2 3 4 4 5 3 6 4 -1 -1 -0 1 1 2 2 3 3 3 4 5 7 9 7 10 11 11 10 11 12 11 10 8 8 9 8 10 9
-1 -3 -2 -0 -1 0 1 4 4 4 4 5 2 5 7 6 6 5 2 3 4 5 4 4 4 5 8 9 9 9 7 7 10 12 11 11 12 11 11 11 10 11 10 10
1 2 -0 2 4 1 3 4 6 6 5 5 6 5 6 5 4 4 5 6 6 6 6 6 6 6 10 10 9 9 8 10 9 9 12 10 11 8 9 10 11 11 11 11
3 3 4 3 4 4 3 5 6 6 8 6 6 7 5 5 5 5 6 6 5 5 5 6 6 7 11 8 11 11 10 10 11 10 11 12 11 10 10 11 11 11 10 8
4 3 1 1 2 3 4 6 5 6 6 6 6 5 4 3 3 4 6 6 6 5 5 5 7 9 11 9 8 8 7 9 8 11 11 11 12 11 12 11 11 11 8 6
2 4 4 2 3 3 5 4 6 7 7 7 7 6 6 5 4 5 6 6 6 5 7 9 7 11 11 8 8 8 6 7 7 10 10 10 11 11 10 11 12 11 11 10
1 4 4 4 5 5 5 5 4 6 5 7 7 6 5 5 4 6 6 6 5 5 6 9 11 11 11 8 7 9 9 8 8 10 9 10 8 8 8 10 10 11 10 11
3 2 5 5 -0 1 2 6 3 7 7 7 6 6 4 5 4 4 5 5 5 5 6 8 11 11 11 11 11 10 10 11 11 10 9 10 8 7 9 9 10 9 9 10
2 3 4 4 2 2 4 2 1 3 5 6 6 6 1 2 3 4 4 5 5 5 6 7 9 10 11 11 11 11 10 10 10 11 10 9 8 7 9 9 9 9 9 10
2 2 4 6 6 5 5 2 3 5 5 6 6 5 2 1 1 1 2 4 4 5 5 6 6 8 9 10 10 10 8 8 9 9 9 9 9 9 10 10 10 10 10 10
1 3 2 1 2 2 3 3 3 3 3 5 4 4 2 1 1 0 1 2 3 4 4 5 5 6 8 9 10 9 9 9 8 9 9 9 9 9 10 9 9 9 10 9
-0 2 1 2 0 2 3 4 3 5 6 3 4 3 1 1 1 1 1 1 2 3 3 4 5 5 5 7 9 9 9 8 8 8 10 9 9 9 10 9 9 9 9 8
1 2 2 2 -0 -0 3 5 3 2 1 1 4 2 1 2 1 1 1 2 3 3 3 3 4 4 5 5 6 9 9 8 8 8 9 9 10 9 9 9 9 10 10 10
2 1 1 2 -1 4 1 1 2 2 1 -0 -0 0 1 1 1 1 1 2 3 3 3 3 3 3 4 4 4 4 7 8 8 8 8 8 9 9 9 9 9 8 9 9
-0 1 2 2 2 2 1 1 2 3 3 0 0 -1 0 1 1 2 1 2 3 3 3 3 4 3 3 3 4 4 4 4 5 7 8 8 8 8 8 9 8 8 8 8
-1 -1 1 1 2 4 1 -0 -1 -0 4 0 0 0 1 -0 3 2 2 1 2 3 3 2 3 3 3 3 3 3 3 4 4 4 4 4 6 7 7 7 7 7 7 7
-0 -1 1 1 1 0 -2 -1 -1 3 4 1 1 1 1 2 2 2 1 1 1 3 3 3 3 3 3 3 3 2 2 2 2 2 3 3 3 3 3 4 4 4 4 4
-1 -1 -1 -0 0 2 -1 -1 2 3 1 1 1 2 2 2 2 2 1 1 1 1 2 3 3 3 3 3 3 3 2 2 2 2 2 2 2 3 3 3 3 2 2 2
-1 -1 -0 -0 1 0 1 1 1 2 2 2 2 2 2 2 2 1 1 1 0 1 1 1 2 3 3 3 3 3 3 3 3 3 2 2 2 2 2 2 2 2 2 2
-2 -3 -1 -1 0 1 1 2 2 2 2 2 2 2 2 2 2 1 1 1 -0 -1 -1 -1 -1 -1 -0 1 1 2 3 3 3 3 3 3 2 2 2 2 2 1 1 1
-2 -2 -2 -1 -0 0 1 1 2 2 1 1 2 2 2 2 2 2 2 1 0 -0 -1 -1 -1 -1 -1 -1 -1 -1 -1 -1 1 1 2 2 2 3 2 3 2 2 1 1
-2 -2 -1 -2 -2 -1 -1 1 1 0 0 0 1 1 2 2 3 2 2 1 0 -0 -0 -0 0 1 0 0 -0 -1 -1 -1 -0 -0 -2 -1 0 1 2 2 2 2 2 1
Wind_Speed
12 4 7 11 14 15 13 16 20 20 17 19 20 23 21 22 21 24 30 38 32 34 38 31 24 24 31 31 24 25 28 42 49 46 43 38 38 34 34 37 31 39 34 36
4 10 14 13 14 12 13 15 22 22 17 15 15 22 22 19 20 23 25 20 25 31 31 26 24 26 33 27 25 20 29 48 42 50 48 46 44 38 37 40 39 37 38 36
10 9 14 12 12 12 15 16 20 20 22 19 19 24 24 23 26 22 22 22 18 17 19 22 24 25 27 27 25 25 37 35 49 53 51 43 41 38 37 35 40 40 36 36
6 7 9 9 12 11 17 14 18 19 13 9 2 10 7 9 13 11 16 23 18 19 25 24 27 21 26 25 21 20 34 32 46 44 47 44 45 41 38 39 36 38 33 34
6 8 6 11 11 2 12 11 12 14 11 8 13 6 5 4 10 12 6 15 13 18 21 23 21 20 23 24 24 26 22 38 30 39 41 43 42 39 38 39 36 39 34 32
16 21 12 10 12 11 14 15 15 10 5 5 15 7 1 3 4 11 8 12 11 11 19 20 20 18 20 23 26 30 31 28 36 31 41 45 43 41 41 40 41 38 36 33
7 7 3 3 7 8 5 7 3 2 3 4 5 5 1 10 8 11 4 3 4 2 7 14 17 21 21 25 26 27 26 23 31 37 34 41 43 40 38 43 42 41 39 36
3 3 3 4 3 4 8 4 3 4 1 2 7 3 4 14 8 2 3 6 10 7 4 13 17 22 28 30 25 35 15 16 25 50 29 40 36 37 36 36 37 38 40 36
4 3 2 7 3 2 5 3 6 4 4 2 2 5 4 11 10 11 10 16 14 13 4 9 17 26 34 35 30 24 16 18 10 33 36 26 29 28 33 31 31 29 32 31
1 5 5 4 2 10 6 6 2 1 4 3 2 2 6 9 8 9 10 14 17 18 12 9 19 26 37 29 27 22 14 13 9 25 20 14 10 14 17 25 28 27 27 29
3 3 3 2 2 3 4 5 2 3 1 3 3 4 10 9 11 13 13 20 19 22 26 14 20 34 35 32 30 28 21 22 18 17 13 15 17 8 19 19 21 21 24 27
3 2 4 2 1 7 5 5 4 4 6 2 2 4 10 11 13 18 19 23 26 35 30 26 32 33 33 26 22 19 14 19 20 23 19 22 21 15 16 15 24 19 24 28
5 3 5 2 2 3 5 6 4 3 3 12 3 4 10 11 15 20 20 25 32 28 34 45 39 34 30 26 21 16 16 24 18 21 20 23 25 27 21 20 23 21 23 32
4 4 4 4 3 3 8 16 13 5 6 4 8 11 14 15 17 17 22 26 30 24 34 43 42 35 26 20 18 19 23 21 17 18 18 19 20 20 20 19 22 21 29 26
0 3 3 6 8 12 16 16 16 14 9 7 9 14 13 13 14 17 24 26 29 35 40 37 35 34 28 23 16 14 15 17 13 10 11 13 15 15 15 14 16 21 26 24
2 2 3 5 6 14 11 17 14 10 8 10 11 12 10 17 22 25 25 26 31 32 35 36 34 31 28 23 17 12 12 12 12 13 12 13 14 16 18 19 19 21 25 25
4 3 2 0 3 4 7 9 9 10 13 11 9 9 10 13 16 23 24 27 27 28 30 29 26 27 23 19 16 13 9 9 5 5 8 10 11 12 11 12 14 19 23 23
5 4 1 2 2 3 3 3 4 12 10 8 7 7 11 13 19 23 24 24 24 24 24 25 23 20 21 19 17 13 10 7 4 2 5 9 11 10 11 13 15 18 20 21
3 3 2 2 3 4 3 2 2 4 8 7 7 6 12 16 21 23 21 20 19 19 19 18 17 17 17 17 16 15 13 10 9 8 3 5 8 10 13 15 17 18 18 19
5 3 0 2 2 3 3 2 3 5 4 7 10 8 10 11 5 3 13 17 20 21 20 16 14 15 16 15 12 10 10 8 9 7 4 2 2 4 5 8 11 13 15 16
1 3 1 3 3 3 3 3 4 2 3 8 12 14 15 6 9 8 10 14 17 18 17 15 14 14 14 12 11 11 10 10 9 5 3 1 2 4 5 7 9 10 12 15
1 1 2 1 1 3 2 0 3 5 9 10 10 11 14 11 10 10 13 14 14 16 15 15 14 13 12 11 10 11 9 9 8 6 5 4 4 5 7 9 11 12 13 15
0 1 1 2 2 3 4 8 8 6 10 8 9 8 8 8 8 7 8 10 13 14 14 14 15 12 10 9 10 9 10 8 8 8 8 7 5 5 6 7 9 11 13 15
3 3 1 3 4 7 8 8 8 7 8 7 7 7 8 8 5 6 6 7 10 11 13 12 13 13 13 12 10 9 8 7 8 8 8 8 10 11 10 9 11 12 13 14
1 7 4 2 5 8 8 10 12 11 9 8 7 6 8 6 4 2 4 6 7 8 8 8 9 10 11 11 9 8 6 6 6 9 10 10 9 9 11 12 13 13 15 17
9 6 4 4 17 9 15 18 14 12 9 7 5 5 4 5 3 2 1 1 1 2 2 3 4 6 6 5 6 8 10 10 10 9 10 11 11 11 12 13 15 17 16 16
Wind_Direction
258 229 229 239 242 247 257 260 271 280 292 287 279 281 276 263 250 263 246 242 224 236 235 237 246 233 231 235 248 252 246 173 167 176 185 182 184 179 182 179 183 171 184 188
263 241 244 261 278 286 281 283 275 284 283 289 296 289 287 276 273 245 254 248 232 225 218 216 221 226 230 231 243 246 225 203 191 176 178 183 183 181 184 185 180 179 187 188
233 261 309 262 272 276 269 261 272 271 293 285 281 280 266 256 257 225 235 240 246 227 227 217 217 224 225 225 238 242 211 209 186 184 184 180 180 181 182 181 188 186 191 188
280 293 280 287 280 272 273 260 269 277 276 272 68 293 312 244 230 220 213 220 232 242 225 221 220 220 227 217 229 220 207 232 187 189 186 180 172 176 182 182 185 181 188 187
256 297 292 286 276 267 258 304 267 278 267 290 267 263 294 274 226 219 207 243 243 228 228 215 217 225 227 212 192 196 193 195 166 189 189 182 179 183 184 183 182 180 187 190
263 265 282 262 287 286 280 277 267 248 246 242 254 199 220 308 326 308 221 230 236 221 208 217 210 218 223 188 178 184 184 208 221 213 196 189 184 183 181 184 184 183 187 187
280 268 225 25 294 282 220 298 269 141 202 253 109 110 280 313 305 293 208 81 75 92 216 224 228 214 197 176 187 191 195 208 219 218 203 193 194 195 191 194 190 188 189 191
312 315 223 176 234 287 288 226 331 295 272 66 184 359 318 349 34 114 40 69 69 61 180 209 212 198 186 167 162 179 152 134 203 215 247 188 192 198 193 194 194 194 197 194
318 287 248 212 211 245 331 324 303 271 236 78 21 340 263 9 8 338 82 60 45 43 69 185 177 184 178 176 172 176 158 158 334 204 218 192 193 189 188 185 195 194 196 195
303 291 318 6 241 224 237 300 290 326 345 75 336 336 354 350 351 357 49 43 37 27 55 130 171 173 173 164 158 156 156 166 198 188 197 150 166 169 193 191 187 190 190 188
239 259 283 253 328 298 326 314 327 244 168 12 354 24 9 18 351 28 37 36 29 29 37 89 156 158 161 148 158 164 144 159 173 195 180 175 157 159 207 190 187 184 196 189
240 286 290 251 31 233 223 254 343 4 10 347 85 50 8 38 31 29 28 29 32 38 39 58 125 126 147 154 159 147 169 190 196 186 182 173 148 155 190 205 204 212 211 199
334 336 312 50 202 23 338 20 6 353 25 22 9 41 29 24 45 46 28 25 39 30 39 61 82 99 116 124 130 142 131 115 125 179 172 171 174 195 221 221 214 227 221 227
296 333 20 16 19 297 17 40 36 58 66 72 49 53 31 23 32 30 40 33 30 40 53 56 59 77 90 109 119 123 124 119 130 142 165 178 194 213 220 222 216 220 228 234
8 8 31 66 74 55 37 36 40 58 50 56 57 49 35 26 31 39 39 35 36 30 43 52 59 60 70 86 103 117 134 145 155 172 173 184 199 205 205 213 217 207 213 224
240 97 26 8 20 69 42 22 41 38 359 62 57 65 48 36 31 33 36 35 33 34 34 44 51 54 57 58 78 115 125 135 167 186 198 201 210 214 216 218 212 207 210 219
12 348 15 340 254 312 34 12 34 50 48 45 42 57 53 40 35 28 30 35 38 35 40 44 48 57 58 59 66 83 122 141 164 194 202 209 209 215 217 222 221 219 221 223
334 331 340 289 261 57 89 46 20 65 35 55 69 67 82 83 59 41 38 39 38 43 51 52 50 54 58 61 62 67 73 90 149 183 196 218 212 209 207 208 209 203 201 203
22 294 312 52 54 137 166 97 59 37 36 14 40 34 130 133 52 35 32 42 45 52 57 71 73 68 70 65 62 67 72 71 78 87 117 210 213 215 215 210 216 218 212 209
306 247 117 353 90 54 89 93 357 299 89 23 38 19 26 153 57 29 29 36 43 50 49 56 62 71 73 67 64 66 64 62 66 69 76 92 158 199 209 219 225 226 227 225
287 312 322 22 69 108 70 6 306 28 120 71 63 51 55 78 104 109 73 60 52 53 54 58 69 78 75 69 55 56 57 55 46 37 24 346 228 241 244 245 246 241 236 235
326 175 149 294 150 296 42 316 64 132 88 83 72 85 97 99 91 85 83 82 76 74 70 64 65 67 66 63 64 61 49 46 34 27 16 358 325 287 266 262 255 254 250 248
6 125 131 113 196 107 68 104 115 118 124 94 105 101 100 113 103 80 67 73 89 94 89 78 77 77 76 63 50 43 44 34 24 9 357 341 320 296 292 284 273 266 258 256
180 194 196 140 172 164 160 145 146 133 136 129 115 100 96 111 95 77 71 56 50 55 69 80 83 82 75 63 51 41 32 15 4 358 345 338 335 321 309 288 274 265 261 258
176 143 186 103 134 135 182 179 171 160 148 137 129 120 123 109 103 79 71 67 60 50 48 43 44 48 50 52 53 48 30 1 335 323 321 320 310 298 296 297 293 284 274 268
188 189 167 218 179 186 194 179 181 167 162 154 140 117 119 136 128 165 190 145 116 64 38 26 27 27 17 15 13 10 9 2 336 308 297 294 289 282 279 277 272 270 268 272
Height
1479 1482 1481 1475 1472 1469 1467 1466 1461 1448 1447 1446 1440 1431 1425 1424 1422 1422 1423 1419 1419 1421 1425 1427 1430 1431 1436 1437 1442 1445 1451 1445 1453 1458 1474 1480 1486 1495 1502 1507 1512 1518 1523 1529
1480 1477 1469 1467 1463 1461 1460 1459 1452 1446 1446 1443 1438 1428 1421 1417 1412 1410 1411 1410 1411 1413 1417 1419 1426 1425 1427 1427 1433 1438 1440 1446 1451 1457 1468 1476 1484 1492 1497 1503 1510 1515 1518 1525
1472 1464 1461 1461 1459 1460 1457 1457 1452 1451 1438 1441 1438 1421 1412 1403 1404 1402 1405 1406 1408 1408 1411 1415 1418 1419 1420 1422 1425 1430 1436 1442 1446 1455 1468 1474 1483 1489 1493 1499 1506 1511 1517 1522
1465 1458 1457 1456 1458 1458 1460 1446 1446 1446 1447 1440 1426 1419 1397 1392 1393 1396 1399 1404 1402 1405 1407 1410 1413 1414 1415 1418 1419 1424 1426 1437 1443 1449 1459 1465 1470 1479 1487 1494 1502 1510 1515 1521
1466 1457 1455 1456 1452 1452 1447 1441 1444 1443 1442 1437 1421 1421 1400 1389 1392 1393 1394 1397 1398 1400 1403 1405 1408 1410 1412 1413 1416 1422 1426 1434 1432 1450 1456 1463 1469 1477 1485 1493 1500 1507 1513 1518
1459 1454 1456 1449 1447 1447 1443 1437 1434 1436 1436 1426 1404 1413 1403 1405 1404 1400 1392 1393 1394 1396 1397 1400 1402 1406 1408 1407 1414 1424 1427 1435 1440 1447 1454 1459 1466 1474 1481 1489 1496 1502 1508 1513
1455 1450 1448 1451 1448 1440 1440 1438 1423 1426 1425 1417 1407 1415 1406 1407 1403 1401 1394 1394 1393 1393 1393 1396 1398 1401 1403 1405 1415 1422 1427 1433 1439 1441 1444 1457 1464 1473 1476 1485 1492 1498 1503 1508
1463 1458 1448 1449 1449 1445 1442 1437 1423 1417 1402 1406 1409 1403 1409 1407 1399 1397 1396 1393 1393 1392 1393 1394 1395 1398 1401 1406 1414 1422 1426 1434 1439 1445 1440 1447 1460 1466 1476 1482 1488 1494 1498 1502
1458 1447 1441 1442 1445 1446 1433 1428 1429 1421 1410 1405 1416 1412 1410 1411 1408 1400 1395 1395 1393 1391 1391 1391 1391 1395 1398 1407 1415 1420 1428 1428 1440 1443 1446 1452 1456 1465 1473 1481 1486 1492 1496 1501
1463 1459 1445 1440 1443 1439 1438 1432 1424 1420 1411 1410 1413 1415 1416 1415 1411 1401 1396 1396 1394 1390 1387 1386 1389 1392 1400 1410 1414 1422 1426 1432 1440 1442 1447 1453 1457 1462 1473 1479 1483 1489 1494 1500
1460 1462 1442 1442 1444 1444 1435 1430 1425 1423 1419 1416 1419 1423 1425 1421 1414 1403 1401 1398 1395 1388 1383 1382 1385 1394 1402 1408 1417 1425 1424 1429 1435 1442 1446 1455 1460 1467 1472 1477 1482 1488 1492 1498
1458 1456 1451 1443 1434 1434 1433 1433 1422 1424 1427 1424 1427 1434 1431 1423 1417 1412 1408 1403 1395 1387 1389 1386 1389 1396 1407 1416 1422 1424 1428 1431 1432 1439 1447 1454 1461 1467 1471 1476 1479 1483 1491 1494
1455 1454 1456 1444 1438 1433 1433 1425 1422 1423 1426 1434 1431 1438 1431 1426 1423 1420 1415 1408 1403 1400 1390 1386 1394 1399 1405 1411 1418 1426 1431 1432 1435 1437 1448 1455 1459 1465 1470 1474 1476 1478 1485 1489
1458 1452 1452 1455 1454 1452 1446 1431 1430 1432 1438 1444 1445 1445 1437 1432 1430 1428 1424 1417 1409 1410 1407 1401 1401 1403 1413 1421 1426 1432 1434 1437 1442 1445 1450 1456 1461 1465 1469 1472 1474 1475 1484 1488
1455 1457 1450 1448 1447 1448 1448 1444 1442 1442 1443 1451 1449 1447 1448 1444 1440 1437 1432 1425 1419 1411 1409 1416 1418 1418 1422 1425 1429 1433 1439 1443 1448 1452 1455 1457 1462 1465 1469 1471 1473 1474 1480 1485
1453 1459 1456 1456 1450 1452 1454 1456 1452 1455 1455 1449 1453 1456 1455 1451 1447 1442 1440 1435 1425 1423 1421 1422 1427 1428 1430 1432 1436 1440 1443 1446 1450 1453 1456 1459 1463 1466 1468 1472 1474 1475 1477 1481
1456 1457 1460 1460 1450 1452 1468 1468 1460 1457 1456 1455 1459 1461 1460 1457 1453 1449 1445 1441 1440 1436 1433 1436 1439 1440 1442 1444 1447 1448 1449 1450 1453 1456 1458 1461 1464 1466 1467 1469 1472 1475 1478 1481
1462 1457 1459 1465 1453 1468 1467 1466 1466 1463 1463 1461 1461 1461 1462 1466 1462 1458 1457 1453 1451 1449 1449 1448 1447 1448 1449 1451 1451 1455 1457 1456 1457 1459 1462 1465 1466 1467 1469 1471 1475 1477 1480 1482
1463 1463 1462 1467 1469 1469 1467 1467 1467 1466 1470 1466 1464 1463 1463 1463 1462 1462 1462 1462 1459 1458 1456 1457 1457 1455 1455 1456 1457 1459 1461 1463 1463 1463 1464 1468 1468 1469 1471 1473 1476 1479 1481 1482
1462 1463 1466 1460 1466 1466 1468 1467 1466 1467 1477 1470 1467 1467 1465 1463 1471 1475 1470 1465 1461 1458 1456 1456 1457 1460 1460 1460 1463 1463 1465 1466 1465 1466 1469 1469 1469 1471 1472 1474 1478 1480 1482 1483
1465 1463 1463 1462 1472 1468 1465 1466 1465 1466 1479 1473 1471 1469 1468 1471 1476 1478 1477 1473 1469 1466 1466 1465 1465 1464 1464 1464 1465 1467 1469 1466 1467 1469 1470 1470 1471 1473 1472 1474 1476 1477 1479 1481
1463 1466 1467 1466 1464 1479 1466 1466 1468 1473 1471 1471 1472 1474 1473 1474 1476 1479 1480 1481 1480 1478 1475 1471 1467 1466 1466 1467 1466 1466 1469 1470 1470 1470 1470 1469 1469 1471 1473 1473 1473 1474 1476 1477
1468 1465 1466 1469 1470 1466 1465 1466 1469 1471 1472 1474 1475 1476 1476 1476 1476 1476 1477 1480 1482 1483 1481 1477 1475 1477 1477 1471 1467 1467 1468 1470 1470 1468 1470 1470 1468 1469 1470 1471 1471 1472 1473 1474
1462 1462 1462 1467 1468 1466 1467 1469 1469 1471 1472 1473 1475 1476 1477 1477 1478 1477 1475 1473 1472 1471 1473 1476 1478 1477 1474 1471 1474 1475 1473 1472 1472 1469 1471 1471 1470 1470 1470 1472 1474 1474 1471 1472
1461 1461 1460 1464 1464 1466 1466 1467 1468 1470 1471 1473 1475 1475 1476 1476 1477 1477 1476 1476 1475 1474 1473 1473 1472 1473 1474 1476 1478 1478 1478 1477 1474 1471 1472 1472 1471 1470 1469 1470 1472 1474 1472 1471
1453 1454 1459 1458 1452 1456 1457 1463 1465 1467 1469 1471 1472 1474 1475 1475 1476 1476 1476 1477 1477 1476 1476 1476 1476 1476 1475 1475 1475 1475 1475 1476 1477 1478 1477 1474 1471 1471 1472 1473 1474 1472 1470 1469